Location: Street
(51.1247°N, 2.7429°W)
Time: 10:21:19
(UTC+00:00)

Tiros 1 - Pass Details

Date: 29 November 2020
Orbit: 630 x 663 km, 48.4° (Epoch: 21 January)

Event Time Altitude Azimuth Distance (km) Brightness Sun altitude
Rises 18:32:25 0° 269° (W) 2,991 12.1 -21.7°
Reaches altitude 10° 18:34:47 10° 266° (W) 2,075 10.9 -22.1°
Maximum altitude 18:39:31 62° 186° (S) 740 7.4 -22.9°
Enters shadow 18:40:15 54° 144° (SE) 799 7.3 -23.0°
Drops below altitude 10° 18:44:12 10° 106° (ESE) 2,056 - -23.6°
Sets 18:46:32 0° 103° (ESE) 2,960 - -23.9°
